sat.trackr.live / text

‹ back to catalog

STARLINK-32644

NORAD 62151 · 2024-224N

PAYLOAD ACTIVE UNKNOWN

§ Identity

Operator
Country
US
Launch date
2024-11-30
Launch site
AFETR
Launch vehicle
Mass (kg)
RCS (m²)

Purposes: comms

External: N2YO · Heavens-Above · Gunter

§ Orbital elements

Epoch: 2026-09-21T00:58:01.010208Z

Period
94.27 min
Inclination
43.0018°
Eccentricity
0.0001432
Mean motion
15.27585544 rev/d
Perigee alt
482.0 km
Apogee alt
484.0 km
Semi-major
6,861.2 km
B*
4.6535e-4
RAAN
135.0969°
Arg perigee
260.1710°
Mean anomaly
99.8980°
Rev number
10,235

§ Raw data

STARLINK-326441 62151U 24224N   26264.04028947  .00012567  00000+0  46535-3 0  99992 62151  43.0018 135.0969 0001432 260.1710  99.8980 15.27585544102353

JSON: /api/v1/satellites/62151 · /tle

For live sub-satellite position, see the globe view (requires WebGL).

§ Visibility from observer

Set your observer location to see the next 7 days of passes ≥ 10°. The values pass through the URL so the page stays shareable.

No JS? Fill the form by hand. The geolocation button needs JavaScript.